Location: Helsinki
(60.1699°N, 24.9384°E)
Time: 16:57:53
(UTC+02:00)

S-56A Canister/Altair - Pass Details

Date: 01 November 2020
Orbit: 633 x 2500 km, 38.9° (Epoch: 29 November)

Event Time Altitude Azimuth Distance (km) Brightness Sun altitude
Rises 07:02:34 0° 224° (SW) 3,451 10.6 -5.5°
Reaches altitude 10° 07:06:26 10° 197° (SSW) 2,816 10.5 -5.1°
Maximum altitude 07:09:22 13° 171° (S) 2,832 10.9 -4.7°
Drops below altitude 10° 07:12:45 10° 146° (SE) 3,355 11.8 -4.3°
Sets 07:18:22 0° 123° (ESE) 4,809 13.9 -3.7°
